#timestamp,LO_Frequency,Hit,StdDev 
1691593215.5,286046999.6,N
1691593235.4,286046999.0,N
1691593255.2,286046999.1,N
1691593275.0,286046999.6,N
1691593276.0,286046999.6,N
1691593295.8,286046999.0,N
1691593315.6,286046999.0,N
1691593335.5,286046999.1,N
1691593355.3,286046996.9,Y
1691593375.2,286047001.2,P
1691593395.9,286047001.0,N
1691593415.7,286047001.1,N
1691593435.6,286046998.3,N
1691593455.4,286046996.5,N
1691593475.2,286046996.7,N
1691593495.1,286046999.6,N
1691593496.0,286046999.6,N
1691593515.8,286046999.5,N
1691593535.7,286046999.1,N
1691593555.5,286046999.0,N
1691593575.3,286046999.5,N
1691593595.2,286046997.0,N
1691593615.0,286046996.7,N
1691593615.9,286046996.7,N
1691593635.8,286046998.6,N
1691593655.6,286046998.4,N
1691593675.4,286046998.2,N
1691593695.3,286047000.9,N
1691593715.1,286046998.2,N
1691593735.9,286046999.0,N
1691593755.7,286047000.8,N
1691593775.5,286046998.6,N
1691593795.4,286046998.4,N
1691593815.2,286047000.7,N
1691593835.1,286046998.6,N
1691593836.0,286046998.6,N
1691593855.8,286047001.0,N
1691593875.6,286047001.0,N
1691593895.5,286046999.7,N
1691593915.3,286047002.4,N
1691593935.2,286046999.8,N
1691593955.9,286047001.8,N
1691593975.7,286047002.6,N
1691593995.6,286047004.4,N
1691594015.4,286047001.8,N
1691594035.2,286047004.2,N
1691594055.1,286047001.6,N
1691594056.0,286047001.6,N
1691594075.8,286047001.3,N
1691594095.7,286047002.1,N
1691594115.5,286047002.0,N
1691594135.3,286047001.5,N
1691594155.2,286047001.3,N
1691594175.0,286047004.0,N
1691594175.9,286047004.0,N
1691594195.7,286047004.3,N
1691594215.6,286047004.4,N
1691594235.4,286047003.2,N
1691594255.3,286047001.7,N
1691594275.1,286047005.6,Y
1691594276.0,286047005.6,P
1691594295.8,286047003.0,N
1691594315.7,286047001.3,N
1691594335.5,286047002.6,N
1691594355.4,286047002.3,N
1691594375.2,286047002.6,N
1691594395.0,286047001.5,N
1691594395.9,286047001.5,N
1691594415.8,286047001.6,N
1691594435.6,286047002.5,N
1691594455.4,286047001.5,N
1691594475.3,286047005.6,Y
1691594495.1,286047002.3,P
1691594515.9,286047002.3,P
1691594535.7,286047002.5,P
1691594555.5,286047000.2,N
1691594575.4,286046998.5,N
1691594595.2,286046998.8,N
1691594615.0,286046998.2,N
1691594615.9,286046998.2,N
1691594635.8,286046999.5,N
1691594655.6,286046997.0,N
1691594675.5,286046999.2,N
1691594695.3,286046998.7,N
1691594715.1,286046998.8,N
1691594735.9,286047001.1,N
1691594755.7,286047001.1,N
1691594775.5,286047000.8,N
1691594795.4,286046998.1,N
1691594815.2,286046998.2,N
1691594835.1,286047000.8,N
1691594866.0,286046999.8,E
1691594875.0,286046999.7,N
1691594875.9,286046999.7,P
1691594895.8,286046999.7,P
1691594915.6,286047002.4,Y
1691594935.4,286047000.4,P
1691594955.3,286046998.4,P
1691594975.1,286046998.2,N
1691594995.8,286046998.7,N
1691595015.7,286046999.9,N
1691595035.5,286047000.0,N
1691595055.3,286047000.8,N
1691595075.2,286047000.8,N
1691595095.0,286046999.5,N
1691595095.9,286046999.5,N
1691595115.8,286047000.7,N
1691595135.6,286047000.6,N
1691595155.4,286047000.6,N
1691595175.3,286047000.7,N
1691595195.1,286046998.1,N
1691595215.9,286047000.9,N
1691595235.7,286047000.7,N
1691595255.5,286047000.5,N
1691595275.4,286047002.4,N
1691595295.2,286046999.9,N
1691595315.0,286047000.5,N
1691595315.9,286047000.5,N
1691595335.8,286047000.7,N
1691595355.6,286047001.1,N
1691595375.5,286047002.3,N
1691595395.3,286047000.9,N
1691595415.1,286047000.4,N
1691595435.9,286047000.1,N
1691595455.7,286047001.1,N
1691595475.5,286046998.9,N
1691595495.4,286046998.8,N
1691595515.2,286047000.4,N
1691595535.1,286047002.6,N
1691595536.0,286047002.6,N
1691595555.8,286047000.1,N
1691595575.6,286047002.8,N
1691595595.5,286046999.8,N
1691595615.3,286047000.3,N
1691595635.1,286046999.7,N
1691595655.9,286047000.7,N
1691595675.7,286046998.7,N
1691595695.6,286046998.9,N
1691595715.4,286046998.4,N
1691595735.2,286047001.0,N
1691595755.1,286047000.3,N
1691595756.0,286047000.3,N
1691595775.8,286047002.4,N
1691595795.6,286046999.7,N
1691595815.5,286046999.8,N
1691595835.3,286047002.8,N
1691595855.2,286047002.8,N
1691595875.9,286047002.1,N
1691595895.7,286046999.7,N
1691595915.6,286047000.2,N
1691595935.4,286046999.9,N
1691595955.2,286047002.6,N
1691595975.1,286047002.1,N
1691595976.0,286047002.1,N
1691595995.8,286047002.8,N
1691596015.7,286047002.6,N
1691596035.5,286047001.5,N
1691596055.3,286047002.1,N
1691596075.2,286047002.3,N
1691596095.0,286047001.5,N
1691596095.9,286047001.5,N
1691596115.7,286047002.2,N
1691596135.6,286047001.6,N
1691596155.4,286047002.2,N
1691596175.3,286047001.8,N
1691596195.1,286047003.9,N
1691596196.0,286047003.9,N
1691596215.8,286047001.4,N
1691596235.7,286047000.2,N
1691596255.5,286047002.8,N
1691596275.3,286047002.3,N
1691596295.2,286047000.4,N
1691596315.0,286047000.4,N
1691596315.9,286047000.4,N
1691596335.8,286047002.0,N
1691596355.6,286047000.1,N
1691596375.4,286047000.5,N
1691596395.3,286047001.0,N
1691596415.1,286047000.4,N
1691596435.8,286046999.9,N
1691596455.7,286047000.6,N
1691596475.5,286047000.3,N
1691596495.4,286046999.7,N
1691596515.2,286046998.4,N
1691596535.0,286046999.5,N
1691596535.9,286046999.5,N
1691596555.8,286046999.6,N
1691596575.6,286046999.2,N
1691596595.4,286046999.0,N
1691596615.3,286046998.1,N
1691596635.1,286046999.9,N
1691596655.9,286047004.4,Y
1691596675.7,286047004.2,P
1691596695.5,286047004.2,N
1691596715.4,286047001.8,N
1691596735.2,286047001.9,N
1691596755.1,286047000.2,N
1691596756.0,286047000.2,N
1691596775.8,286046999.7,N
1691596795.6,286047000.6,N
